カタログに戻る

STARLINK-5283

運用中通信VLEO
NORAD 55396·PAYLOAD·🇺🇸 United States

打ち上げ Jan 31, 2023 から Vandenberg Space Force Base

Loading…

次のパス (今後24時間)

TLE

最新Source: CelesTrak SupGP

元期: Sep 15, 2026, 02:27 UTC

1 55396C 23014F   26258.10256944  .00029966  00000+0  25109-2 0  2580
2 55396  69.9993 306.7440 0003319 272.4756 354.9566 14.98321087    10

AllMySatでSTARLINK-5283をリアルタイム追跡

Download on the App Store